Location: Red Deer
(52.2681°N, 113.8112°W)
Time: 07:26:47
(UTC-06:00)

BlueWalker 3 - Pass Details

Date: 01 December 2022
Orbit: 491 x 508 km, 53.2° (Epoch: 27 September)

Event Time Altitude Azimuth Distance (km) Brightness Sun altitude
Rises 18:32:10 0° 271° (W) 2,661 7.1 -18.3°
Reaches altitude 10° 18:34:24 10° 273° (W) 1,765 5.8 -18.7°
Maximum altitude 18:38:24 76° 359° (N) 540 1.9 -19.3°
Enters shadow 18:39:09 56° 68° (ENE) 624 2.0 -19.4°
